COSMOS 2514 (751)

Last updated on June 24, 2019, 3:41 a.m. UTC

1 41330U 16008A   19174.77998934 -.00000064  00000-0  00000+0 0  9994
2 41330  65.3739  39.6058 0007985 213.0762  91.1059  2.13103085 26261
UTC
Height (km)
Latitude
Longitude
Inclination
Orbital Period
UTC large
Height (km)
Speed (km/s)
/
Latitude / Longitude
Inclination (degrees)
Orbital Period (minutes)
Azimuth
Elevation
Range (km)
Doppler Factor
iOS Compass Heading
iOS Angle

Next 30 passes for location: Hong Kong

Rise time Rise Azimuth (degrees) Set time Set Azimuth (degrees) Duration Max altitude (degrees)

No matching passes for this satellites